SCP
0 0 0 0 0 0 0 0 0 0 0 0 0 0 0 0 0 0 0 0 0 0 0 0 0 0 0 0 0 0 0 0 0 6 3 6 5 5 2 2 2 1 1 1
0 0 0 0 0 0 0 0 0 0 0 0 0 0 0 0 0 0 0 0 0 0 0 0 0 0 0 0 0 0 0 0 0 4 6 6 5 5 2 2 3 3 1 1
0 0 0 0 0 0 0 0 0 0 0 0 0 0 0 0 0 0 0 0 0 0 0 0 0 0 0 0 0 0 0 0 0 2 4 6 5 4 4 3 2 2 2 1
0 0 0 0 0 0 0 0 0 0 0 0 0 0 0 0 0 0 0 0 0 0 0 0 0 0 0 0 0 0 0 0 0 1 3 3 6 6 6 4 2 2 2 1
0 0 0 0 0 0 0 0 0 0 0 0 0 0 0 0 0 0 0 0 0 0 0 0 0 0 0 -0 0 0 0 0 0 2 3 4 4 5 4 5 4 3 4 1
0 0 0 0 0 0 0 0 0 0 0 0 0 0 0 0 0 0 0 0 0 0 0 -0 0 0 0 0 0 0 0 0 0 4 2 3 3 4 4 4 4 2 2 2
0 0 0 0 0 0 0 0 0 0 0 0 0 0 0 0 0 0 0 0 0 0 0 0 0 0 0 -0 0 0 0 0 0 0 2 2 3 4 5 5 2 2 2 2
0 0 0 0 0 0 0 0 0 0 0 0 0 0 0 0 0 0 0 0 0 0 0 0 -0 0 0 -0 -0 0 0 0 0 0 0 3 2 4 7 5 3 2 2 2
0 0 0 0 0 0 0 0 0 0 0 0 0 0 0 0 0 0 0 0 0 0 0 -0 -0 -0 -0 0 0 0 0 0 0 0 0 0 3 2 5 2 4 2 2 1
0 0 0 0 0 0 0 0 0 0 0 0 0 0 0 0 0 0 0 0 0 0 0 -0 -0 -0 -0 -0 0 0 0 0 0 0 0 0 0 3 2 2 2 1 2 2
0 0 0 0 0 0 0 0 0 0 0 0 0 0 0 0 0 0 0 0 0 0 0 0 -0 0 -0 0 0 0 0 0 0 0 0 0 0 0 2 0 1 0 3 2
0 0 0 0 0 0 0 0 0 0 0 0 0 0 0 0 0 0 0 0 0 0 0 0 -0 -0 -0 0 0 0 0 0 0 0 0 0 0 0 0 1 0 0 1 1
0 0 0 0 0 0 0 0 0 0 0 0 0 0 0 0 0 0 0 0 0 0 0 0 -0 -0 0 0 0 0 0 0 0 0 0 0 0 0 0 0 0 2 0 1
0 0 0 0 0 0 0 0 0 0 0 0 0 0 0 0 0 0 0 0 0 0 0 0 0 -0 0 0 0 0 0 0 0 0 0 0 0 0 0 0 3 1 2 1
0 0 0 0 0 0 0 0 0 0 0 0 0 0 -0 0 0 0 0 0 0 0 0 0 0 0 0 -0 0 0 0 0 0 0 0 0 0 0 0 0 2 3 2 3
0 0 0 -0 0 0 0 0 0 0 0 0 0 0 0 0 0 0 0 0 0 0 0 0 -0 0 0 -0 -0 0 0 0 0 0 0 0 0 0 0 0 1 5 4 5
0 0 0 0 0 0 0 0 0 0 0 0 0 0 0 0 0 0 0 0 0 0 0 0 0 0 0 0 0 0 0 0 0 0 0 0 0 0 0 0 2 2 6 6
0 0 0 0 0 0 0 0 0 0 0 0 0 0 0 0 0 0 0 0 0 0 0 0 0 0 0 0 0 0 0 0 0 0 0 0 0 0 0 0 1 4 6 8
0 0 0 0 0 0 0 0 0 0 0 0 0 0 0 0 0 0 0 0 0 0 0 0 0 0 0 0 0 0 0 0 0 0 0 0 0 0 0 0 1 2 4 5
0 0 0 0 0 0 0 0 0 0 0 0 0 0 0 0 0 0 0 0 0 0 0 0 0 0 0 0 0 0 0 0 0 0 0 0 0 0 0 0 0 1 3 4
0 0 0 0 0 0 0 0 0 0 0 0 0 0 0 0 0 0 -0 0 0 0 0 0 0 0 0 0 0 -0 0 -0 0 0 0 0 0 0 0 0 0 1 2 2
0 0 0 0 0 0 0 0 0 0 0 0 0 0 0 0 0 0 0 0 0 0 0 0 0 0 0 0 0 0 0 -0 0 0 0 0 0 0 0 0 0 0 1 2
0 0 0 0 0 0 0 0 0 0 0 0 0 0 0 0 0 0 0 0 0 0 0 0 0 0 0 0 0 0 0 0 0 0 0 0 0 0 0 0 1 0 1 1
0 0 0 0 0 0 0 0 0 0 0 0 0 0 0 0 0 0 0 0 0 0 0 0 0 0 0 0 0 0 0 0 0 0 0 0 0 0 0 0 0 0 -0 -0
0 0 0 0 0 0 0 0 0 0 0 0 0 0 0 0 0 0 0 0 0 0 0 0 0 0 0 0 0 0 -0 0 0 0 0 0 0 0 0 0 0 0 0 0
0 0 0 0 0 0 0 0 0 0 0 0 0 0 0 0 0 0 0 0 0 0 0 0 0 0 0 0 0 -0 0 0 -0 0 0 0 0 0 0 0 -0 0 0 0
Wind_Speed_500mb
2 16 7 7 10 18 18 20 25 28 24 26 28 36 32 28 18 16 25 34 38 44 48 44 42 45 49 50 49 51 54 62 66 84 92 97 93 84 74 69 68 68 78 79
15 10 8 8 13 12 13 24 27 22 10 33 30 42 23 5 6 16 22 29 37 46 49 50 46 46 47 51 48 49 53 58 61 84 93 99 97 88 75 70 74 79 85 84
16 10 2 10 8 13 15 23 24 35 39 41 17 21 17 14 8 12 19 27 35 44 55 54 52 49 51 51 50 53 54 54 56 76 86 96 91 89 89 79 74 78 85 88
8 8 13 14 10 11 22 13 26 33 29 17 17 10 14 15 13 6 22 32 41 48 54 57 52 51 50 51 48 54 56 56 55 72 84 89 92 94 100 87 74 73 73 73
10 12 12 14 5 10 19 28 32 31 26 21 12 13 5 27 13 7 21 31 42 53 55 58 55 50 49 47 51 54 57 51 48 64 83 89 88 84 74 82 86 85 80 74
10 6 8 6 10 11 20 28 27 12 14 14 11 11 18 3 7 10 17 28 41 58 64 58 55 49 49 45 46 55 55 54 29 55 79 88 91 89 79 75 84 77 75 77
6 14 6 6 17 12 17 21 7 8 14 12 10 19 23 3 9 6 18 32 49 62 63 62 59 56 50 52 48 57 55 58 34 50 67 79 87 80 87 73 68 66 71 74
7 13 18 10 7 11 9 12 5 10 10 26 34 16 6 7 9 7 21 38 58 60 58 61 57 54 52 51 47 52 55 58 39 25 60 68 80 80 75 80 64 63 59 69
8 7 9 7 5 10 11 7 9 10 26 14 14 15 22 15 16 11 30 47 58 55 62 65 59 51 56 52 49 50 49 51 50 37 36 61 68 85 82 83 84 77 56 49
4 10 8 11 11 10 13 7 7 8 10 13 14 29 14 14 14 22 33 57 56 60 64 62 59 56 56 52 50 47 45 47 49 38 26 40 58 58 76 68 86 76 65 59
3 6 10 10 16 8 13 14 7 7 12 9 15 7 5 13 11 27 37 54 57 60 61 59 60 58 60 56 51 47 46 44 41 46 33 26 47 60 68 96 99 49 70 61
12 10 12 14 7 16 20 19 13 7 5 15 16 25 5 12 11 24 35 47 53 55 56 60 63 60 59 59 55 50 44 41 40 38 43 30 36 52 60 64 141 109 55 53
15 10 9 8 7 10 17 18 18 18 17 30 16 15 14 18 28 49 40 50 51 54 56 63 61 64 62 59 54 50 45 43 39 36 32 36 22 46 57 55 97 69 60 46
15 18 21 16 18 13 20 27 25 26 15 32 41 55 48 40 44 41 49 54 52 51 57 61 62 57 65 57 54 50 48 45 40 37 34 31 32 21 61 53 46 49 45 48
15 21 29 34 40 38 40 42 39 39 46 35 53 54 48 43 35 40 46 52 51 54 59 62 63 57 66 60 55 53 49 45 41 40 34 31 30 28 24 56 55 42 53 48
25 21 21 33 33 39 46 44 43 43 44 48 49 52 41 30 44 43 45 49 50 52 59 61 62 63 64 62 58 61 52 47 43 41 40 32 28 25 22 23 60 49 43 47
25 17 13 17 13 23 35 35 36 29 26 26 32 32 30 36 35 42 48 49 41 54 58 58 62 66 64 68 67 61 57 50 44 41 40 35 29 26 22 16 24 55 46 44
23 25 9 15 22 16 4 3 11 21 26 29 32 33 32 33 38 45 45 22 43 52 56 54 59 67 69 66 60 60 54 51 46 43 40 34 28 27 20 16 15 43 50 53
34 21 10 9 13 32 28 18 8 8 17 23 24 21 27 30 35 34 3 32 47 48 56 53 58 63 64 59 56 56 55 51 45 43 38 36 32 26 20 17 11 16 47 46
29 30 15 9 9 11 5 11 11 6 13 12 7 19 20 23 15 19 36 47 46 49 49 58 57 61 55 55 53 56 55 54 46 40 38 33 29 28 29 25 17 12 18 41
14 16 25 17 14 20 17 21 16 6 5 5 20 25 22 19 25 43 45 43 44 47 44 59 60 57 52 51 52 56 56 50 44 40 35 33 28 30 26 33 28 11 13 23
24 20 11 13 13 22 14 26 13 4 12 17 21 23 25 27 32 36 40 42 44 44 45 57 60 57 52 51 51 56 55 45 36 30 28 27 27 30 20 38 36 29 28 15
16 17 12 21 14 7 42 15 32 12 22 25 21 19 19 24 30 32 38 40 41 38 46 57 59 57 52 53 48 55 52 38 20 11 13 18 18 16 41 41 34 38 35 43
20 31 12 13 24 32 25 39 40 29 30 25 17 15 19 26 29 31 34 37 37 34 42 56 55 55 57 54 51 48 49 32 20 11 8 11 13 16 21 23 28 39 41 41
13 25 24 27 30 27 29 35 30 30 23 18 14 16 19 23 26 29 32 34 30 30 39 49 48 52 55 55 51 49 51 36 27 18 8 7 11 14 18 21 22 27 34 39
27 22 19 13 19 20 15 8 12 15 17 14 14 14 15 19 24 26 29 29 25 27 34 45 46 48 53 53 50 48 48 36 25 19 13 9 8 8 9 12 15 20 29 37
Wind_Direction_500mb
259 264 231 18 328 304 295 286 292 292 323 304 296 294 301 303 297 346 332 335 330 325 325 322 316 314 311 305 305 298 288 264 243 243 230 215 210 213 214 214 209 210 216 220
228 248 113 321 306 273 277 291 299 304 272 316 299 297 290 83 25 350 348 348 341 333 329 326 321 320 318 315 313 306 295 275 246 238 232 222 226 217 216 217 214 214 223 221
279 86 289 303 262 282 294 297 311 308 316 285 300 266 144 152 243 324 344 346 347 344 338 329 321 319 320 322 317 312 302 287 246 235 231 224 225 225 218 214 216 216 220 222
264 148 292 275 239 297 297 360 305 302 314 314 343 286 258 145 287 286 334 341 339 334 331 330 322 317 319 320 322 318 311 295 249 232 227 222 211 208 213 215 216 216 212 215
93 282 274 240 340 314 298 318 299 293 282 294 198 249 211 211 234 301 330 338 338 337 332 329 327 318 320 318 325 322 321 313 265 229 227 224 214 214 216 212 215 215 223 214
299 293 248 338 285 283 298 291 283 272 258 251 226 272 294 295 304 277 328 335 338 334 330 328 327 321 319 322 326 327 328 318 267 237 227 226 221 218 212 217 217 217 214 216
188 194 161 270 292 177 301 326 322 271 210 266 149 269 264 89 192 303 328 328 332 332 326 327 329 327 325 328 328 331 326 328 291 227 228 228 225 224 217 217 218 213 207 213
281 194 192 160 305 321 328 327 2 290 297 304 302 253 73 76 166 288 323 328 327 327 325 325 327 327 327 330 333 320 325 328 310 275 217 232 223 224 226 226 218 214 210 211
299 198 154 240 206 261 120 251 13 288 257 268 236 236 219 160 229 275 320 321 329 324 324 322 325 326 327 326 327 324 325 326 326 309 235 222 224 222 225 228 227 222 213 210
130 279 183 153 262 196 266 49 216 204 286 293 280 295 286 202 269 329 319 330 328 321 321 321 322 326 326 324 324 321 320 321 322 317 303 231 225 224 231 234 227 214 211 198
212 234 151 218 206 237 181 205 224 282 268 282 305 302 63 325 330 323 317 328 324 325 321 320 323 323 327 322 321 318 316 318 321 323 313 274 230 224 229 233 215 229 206 199
207 214 256 261 325 263 250 255 238 229 218 249 283 280 26 156 293 315 330 319 326 326 324 325 322 323 326 324 320 318 315 313 314 321 327 312 256 218 223 233 220 236 202 197
167 216 284 191 178 190 224 223 238 242 270 257 275 269 160 229 289 331 328 317 321 326 327 328 324 322 325 324 322 320 314 311 305 312 317 316 284 228 219 225 205 213 214 188
183 226 229 259 303 317 253 247 244 228 246 266 257 271 283 304 323 326 319 319 320 322 328 326 324 321 327 325 323 320 315 311 304 305 308 307 303 248 221 222 218 208 200 194
228 253 253 253 262 270 270 266 262 246 243 244 272 281 298 306 314 314 315 316 321 319 325 325 327 320 325 323 321 320 315 309 306 294 296 297 305 293 227 214 219 211 212 194
214 261 270 277 273 267 268 261 257 259 261 260 262 270 275 322 312 316 312 314 313 320 322 326 324 323 320 322 319 319 315 310 302 294 285 288 290 291 273 226 204 201 208 203
208 238 276 268 276 285 278 268 243 254 256 269 270 283 325 304 308 316 310 306 311 316 320 326 324 323 321 322 321 317 315 309 300 290 282 284 286 290 295 285 209 206 199 205
219 227 206 278 308 249 86 196 281 266 260 266 268 277 292 301 312 306 300 309 316 319 321 324 324 324 321 325 326 319 313 306 298 289 277 273 275 273 281 285 274 209 202 207
223 214 238 248 254 288 295 208 214 203 280 277 265 276 295 310 307 303 333 325 320 317 322 322 324 324 324 329 329 321 314 307 296 285 270 256 249 255 267 268 268 198 208 209
206 222 207 202 241 257 12 152 148 148 276 167 261 294 297 296 286 295 321 321 319 321 322 325 328 331 332 332 331 326 318 310 296 282 267 255 249 235 247 254 252 202 201 209
174 190 218 221 240 265 263 153 177 255 25 248 296 290 286 263 270 299 310 317 319 322 325 333 341 338 338 339 338 332 324 311 296 286 271 254 240 226 224 243 264 253 244 226
181 178 189 209 229 259 158 148 211 315 284 300 297 288 276 274 288 302 310 314 322 325 325 341 344 344 347 347 344 340 328 321 298 280 263 251 239 231 224 231 248 246 254 251
207 204 184 198 208 221 186 200 219 266 290 302 287 286 270 281 297 308 311 318 323 325 325 345 347 348 353 354 354 343 340 337 321 301 260 238 236 213 202 248 245 265 256 263
227 207 227 194 235 235 218 234 250 263 279 285 270 265 271 287 302 310 316 319 324 327 326 346 351 353 355 355 1 355 354 353 23 58 145 180 192 195 201 211 239 235 242 238
218 179 223 243 257 254 250 246 259 262 265 251 246 259 272 290 301 313 317 320 325 328 328 352 355 356 356 357 2 8 4 9 31 47 76 122 161 184 210 223 237 245 230 225
204 208 215 248 241 234 268 205 216 226 232 233 244 262 277 292 306 315 320 321 325 329 332 354 2 358 360 1 3 7 16 12 32 45 64 84 154 175 214 233 250 249 232 231
Wind_Speed_850mb
2 16 7 7 10 18 18 20 25 28 24 26 28 36 32 28 18 16 25 34 38 44 48 44 42 45 49 50 49 51 54 62 66 84 92 97 93 84 74 69 68 68 78 79
15 10 8 8 13 12 13 24 27 22 10 33 30 42 23 5 6 16 22 29 37 46 49 50 46 46 47 51 48 49 53 58 61 84 93 99 97 88 75 70 74 79 85 84
16 10 2 10 8 13 15 23 24 35 39 41 17 21 17 14 8 12 19 27 35 44 55 54 52 49 51 51 50 53 54 54 56 76 86 96 91 89 89 79 74 78 85 88
8 8 13 14 10 11 22 13 26 33 29 17 17 10 14 15 13 6 22 32 41 48 54 57 52 51 50 51 48 54 56 56 55 72 84 89 92 94 100 87 74 73 73 73
10 12 12 14 5 10 19 28 32 31 26 21 12 13 5 27 13 7 21 31 42 53 55 58 55 50 49 47 51 54 57 51 48 64 83 89 88 84 74 82 86 85 80 74
10 6 8 6 10 11 20 28 27 12 14 14 11 11 18 3 7 10 17 28 41 58 64 58 55 49 49 45 46 55 55 54 29 55 79 88 91 89 79 75 84 77 75 77
6 14 6 6 17 12 17 21 7 8 14 12 10 19 23 3 9 6 18 32 49 62 63 62 59 56 50 52 48 57 55 58 34 50 67 79 87 80 87 73 68 66 71 74
7 13 18 10 7 11 9 12 5 10 10 26 34 16 6 7 9 7 21 38 58 60 58 61 57 54 52 51 47 52 55 58 39 25 60 68 80 80 75 80 64 63 59 69
8 7 9 7 5 10 11 7 9 10 26 14 14 15 22 15 16 11 30 47 58 55 62 65 59 51 56 52 49 50 49 51 50 37 36 61 68 85 82 83 84 77 56 49
4 10 8 11 11 10 13 7 7 8 10 13 14 29 14 14 14 22 33 57 56 60 64 62 59 56 56 52 50 47 45 47 49 38 26 40 58 58 76 68 86 76 65 59
3 6 10 10 16 8 13 14 7 7 12 9 15 7 5 13 11 27 37 54 57 60 61 59 60 58 60 56 51 47 46 44 41 46 33 26 47 60 68 96 99 49 70 61
12 10 12 14 7 16 20 19 13 7 5 15 16 25 5 12 11 24 35 47 53 55 56 60 63 60 59 59 55 50 44 41 40 38 43 30 36 52 60 64 141 109 55 53
15 10 9 8 7 10 17 18 18 18 17 30 16 15 14 18 28 49 40 50 51 54 56 63 61 64 62 59 54 50 45 43 39 36 32 36 22 46 57 55 97 69 60 46
15 18 21 16 18 13 20 27 25 26 15 32 41 55 48 40 44 41 49 54 52 51 57 61 62 57 65 57 54 50 48 45 40 37 34 31 32 21 61 53 46 49 45 48
15 21 29 34 40 38 40 42 39 39 46 35 53 54 48 43 35 40 46 52 51 54 59 62 63 57 66 60 55 53 49 45 41 40 34 31 30 28 24 56 55 42 53 48
25 21 21 33 33 39 46 44 43 43 44 48 49 52 41 30 44 43 45 49 50 52 59 61 62 63 64 62 58 61 52 47 43 41 40 32 28 25 22 23 60 49 43 47
25 17 13 17 13 23 35 35 36 29 26 26 32 32 30 36 35 42 48 49 41 54 58 58 62 66 64 68 67 61 57 50 44 41 40 35 29 26 22 16 24 55 46 44
23 25 9 15 22 16 4 3 11 21 26 29 32 33 32 33 38 45 45 22 43 52 56 54 59 67 69 66 60 60 54 51 46 43 40 34 28 27 20 16 15 43 50 53
34 21 10 9 13 32 28 18 8 8 17 23 24 21 27 30 35 34 3 32 47 48 56 53 58 63 64 59 56 56 55 51 45 43 38 36 32 26 20 17 11 16 47 46
29 30 15 9 9 11 5 11 11 6 13 12 7 19 20 23 15 19 36 47 46 49 49 58 57 61 55 55 53 56 55 54 46 40 38 33 29 28 29 25 17 12 18 41
14 16 25 17 14 20 17 21 16 6 5 5 20 25 22 19 25 43 45 43 44 47 44 59 60 57 52 51 52 56 56 50 44 40 35 33 28 30 26 33 28 11 13 23
24 20 11 13 13 22 14 26 13 4 12 17 21 23 25 27 32 36 40 42 44 44 45 57 60 57 52 51 51 56 55 45 36 30 28 27 27 30 20 38 36 29 28 15
16 17 12 21 14 7 42 15 32 12 22 25 21 19 19 24 30 32 38 40 41 38 46 57 59 57 52 53 48 55 52 38 20 11 13 18 18 16 41 41 34 38 35 43
20 31 12 13 24 32 25 39 40 29 30 25 17 15 19 26 29 31 34 37 37 34 42 56 55 55 57 54 51 48 49 32 20 11 8 11 13 16 21 23 28 39 41 41
13 25 24 27 30 27 29 35 30 30 23 18 14 16 19 23 26 29 32 34 30 30 39 49 48 52 55 55 51 49 51 36 27 18 8 7 11 14 18 21 22 27 34 39
27 22 19 13 19 20 15 8 12 15 17 14 14 14 15 19 24 26 29 29 25 27 34 45 46 48 53 53 50 48 48 36 25 19 13 9 8 8 9 12 15 20 29 37
Wind_Direction_850mb
259 264 231 18 328 304 295 286 292 292 323 304 296 294 301 303 297 346 332 335 330 325 325 322 316 314 311 305 305 298 288 264 243 243 230 215 210 213 214 214 209 210 216 220
228 248 113 321 306 273 277 291 299 304 272 316 299 297 290 83 25 350 348 348 341 333 329 326 321 320 318 315 313 306 295 275 246 238 232 222 226 217 216 217 214 214 223 221
279 86 289 303 262 282 294 297 311 308 316 285 300 266 144 152 243 324 344 346 347 344 338 329 321 319 320 322 317 312 302 287 246 235 231 224 225 225 218 214 216 216 220 222
264 148 292 275 239 297 297 360 305 302 314 314 343 286 258 145 287 286 334 341 339 334 331 330 322 317 319 320 322 318 311 295 249 232 227 222 211 208 213 215 216 216 212 215
93 282 274 240 340 314 298 318 299 293 282 294 198 249 211 211 234 301 330 338 338 337 332 329 327 318 320 318 325 322 321 313 265 229 227 224 214 214 216 212 215 215 223 214
299 293 248 338 285 283 298 291 283 272 258 251 226 272 294 295 304 277 328 335 338 334 330 328 327 321 319 322 326 327 328 318 267 237 227 226 221 218 212 217 217 217 214 216
188 194 161 270 292 177 301 326 322 271 210 266 149 269 264 89 192 303 328 328 332 332 326 327 329 327 325 328 328 331 326 328 291 227 228 228 225 224 217 217 218 213 207 213
281 194 192 160 305 321 328 327 2 290 297 304 302 253 73 76 166 288 323 328 327 327 325 325 327 327 327 330 333 320 325 328 310 275 217 232 223 224 226 226 218 214 210 211
299 198 154 240 206 261 120 251 13 288 257 268 236 236 219 160 229 275 320 321 329 324 324 322 325 326 327 326 327 324 325 326 326 309 235 222 224 222 225 228 227 222 213 210
130 279 183 153 262 196 266 49 216 204 286 293 280 295 286 202 269 329 319 330 328 321 321 321 322 326 326 324 324 321 320 321 322 317 303 231 225 224 231 234 227 214 211 198
212 234 151 218 206 237 181 205 224 282 268 282 305 302 63 325 330 323 317 328 324 325 321 320 323 323 327 322 321 318 316 318 321 323 313 274 230 224 229 233 215 229 206 199
207 214 256 261 325 263 250 255 238 229 218 249 283 280 26 156 293 315 330 319 326 326 324 325 322 323 326 324 320 318 315 313 314 321 327 312 256 218 223 233 220 236 202 197
167 216 284 191 178 190 224 223 238 242 270 257 275 269 160 229 289 331 328 317 321 326 327 328 324 322 325 324 322 320 314 311 305 312 317 316 284 228 219 225 205 213 214 188
183 226 229 259 303 317 253 247 244 228 246 266 257 271 283 304 323 326 319 319 320 322 328 326 324 321 327 325 323 320 315 311 304 305 308 307 303 248 221 222 218 208 200 194
228 253 253 253 262 270 270 266 262 246 243 244 272 281 298 306 314 314 315 316 321 319 325 325 327 320 325 323 321 320 315 309 306 294 296 297 305 293 227 214 219 211 212 194
214 261 270 277 273 267 268 261 257 259 261 260 262 270 275 322 312 316 312 314 313 320 322 326 324 323 320 322 319 319 315 310 302 294 285 288 290 291 273 226 204 201 208 203
208 238 276 268 276 285 278 268 243 254 256 269 270 283 325 304 308 316 310 306 311 316 320 326 324 323 321 322 321 317 315 309 300 290 282 284 286 290 295 285 209 206 199 205
219 227 206 278 308 249 86 196 281 266 260 266 268 277 292 301 312 306 300 309 316 319 321 324 324 324 321 325 326 319 313 306 298 289 277 273 275 273 281 285 274 209 202 207
223 214 238 248 254 288 295 208 214 203 280 277 265 276 295 310 307 303 333 325 320 317 322 322 324 324 324 329 329 321 314 307 296 285 270 256 249 255 267 268 268 198 208 209
206 222 207 202 241 257 12 152 148 148 276 167 261 294 297 296 286 295 321 321 319 321 322 325 328 331 332 332 331 326 318 310 296 282 267 255 249 235 247 254 252 202 201 209
174 190 218 221 240 265 263 153 177 255 25 248 296 290 286 263 270 299 310 317 319 322 325 333 341 338 338 339 338 332 324 311 296 286 271 254 240 226 224 243 264 253 244 226
181 178 189 209 229 259 158 148 211 315 284 300 297 288 276 274 288 302 310 314 322 325 325 341 344 344 347 347 344 340 328 321 298 280 263 251 239 231 224 231 248 246 254 251
207 204 184 198 208 221 186 200 219 266 290 302 287 286 270 281 297 308 311 318 323 325 325 345 347 348 353 354 354 343 340 337 321 301 260 238 236 213 202 248 245 265 256 263
227 207 227 194 235 235 218 234 250 263 279 285 270 265 271 287 302 310 316 319 324 327 326 346 351 353 355 355 1 355 354 353 23 58 145 180 192 195 201 211 239 235 242 238
218 179 223 243 257 254 250 246 259 262 265 251 246 259 272 290 301 313 317 320 325 328 328 352 355 356 356 357 2 8 4 9 31 47 76 122 161 184 210 223 237 245 230 225
204 208 215 248 241 234 268 205 216 226 232 233 244 262 277 292 306 315 320 321 325 329 332 354 2 358 360 1 3 7 16 12 32 45 64 84 154 175 214 233 250 249 232 231